Regional Weather Roundup
Issued by NWS Portland, ME

Current Version | Previous Version | Text Only | Print | Product List | Glossary Off
Versions: 1 2 3 4 5 6 7 8 9 10 11 12 13 14 15 16 17 18 19 20 21 22 23 24 25 26 27 28 29 30 31 32 33 34 35 36 37 38 39 40 41 42 43 44 45 46 47 48 49 50
000 ASUS41 KGYX 170610 RWRGYX WEATHER ROUNDUP FOR MAINE AND NEW HAMPSHIRE NATIONAL WEATHER SERVICE GRAY ME 100 AM EST SAT NOV 17 2018 MEZ002-005-006-010-012-015-018-020-021-024-026-027-029-170700- MAINE CITY SKY/WX TMP DP RH WIND PRES REMARKS PORTLAND MOCLDY 31 28 89 SW7 29.73R 6HR MIN TEMP: 30; 6HR MAX TEMP: 32; 6HR PCP: TRACE; SANFORD MOCLDY 19 17 92 S5 29.75R BAR HARBOR FLURRIES 27 25 92 W7 29.68S WISCASSET FAIR 25 24 96 CALM 29.72R 6HR MIN TEMP: 25; 6HR MAX TEMP: 29; 6HR PCP: TRACE; ROCKLAND FAIR 28 27 96 W7 29.70R FRYEBURG CLOUDY 30 28 92 SW3 29.69R 6HR MIN TEMP: 26; 6HR MAX TEMP: 32; LEWISTONAUBURN CLOUDY 25 23 93 S3 29.71R FOG AUGUSTA CLOUDY 28 27 96 SW5 29.69R 6HR MIN TEMP: 27; 6HR MAX TEMP: 29; 6HR PCP: 0.02; WATERVILLE FAIR 26 25 96 MISG 29.66R BANGOR FLURRIES 26 24 92 SW3 29.68R 6HR MIN TEMP: 26; 6HR MAX TEMP: 27; 6HR PCP: TRACE; GREENVILLE N/A 22 18 85 NW12G20 29.58R WCI 10 6HR MIN TEMP: 20; 6HR MAX TEMP: 22; 6HR PCP: 0.07; MILLINOCKET CLOUDY 23 18 81 W9 29.64R 6HR MIN TEMP: 22; 6HR MAX TEMP: 24; 6HR PCP: TRACE; HOULTON LGT SNOW 22 20 92 W6 29.58R FOG 6HR MIN TEMP: 21; 6HR MAX TEMP: 23; 6HR PCP: 0.06; PRESQUE ISLE LGT SNOW 22 20 92 W7 29.60R FOG 6HR MIN TEMP: 22; 6HR MAX TEMP: 23; 6HR PCP: TRACE; FRENCHVILLE LGT SNOW 21 16 81 NW7 29.55R 6HR MIN TEMP: 21; 6HR MAX TEMP: 22; 6HR PCP: 0.03; CARIBOU LGT SNOW 22 18 85 W6 29.56R VSB 1 6HR MIN TEMP: 22; 6HR MAX TEMP: 23; 6HR PCP: 0.10; $$ NHZ002-005-008-009-011-012-014-170700- NEW HAMPSHIRE CITY SKY/WX TMP DP RH WIND PRES REMARKS PORTSMOUTH PTCLDY 32 28 84 SW6 29.75R ROCHESTER FAIR 26 25 96 CALM 29.74R FOG 6HR MIN TEMP: 26; 6HR MAX TEMP: 33; NASHUA FAIR 35 31 85 SW5 29.79R MANCHESTER FAIR 35 29 78 SW6 29.76R 6HR MIN TEMP: 29; 6HR MAX TEMP: 36; CONCORD FAIR 23 21 92 S5 29.76R 6HR MIN TEMP: 22; 6HR MAX TEMP: 35; LACONIA CLOUDY 36 29 75 SW12 29.73R PLYMOUTH CLOUDY 36 30 80 NW5 29.71S BERLIN CLOUDY 32 27 81 NW7 29.68R 6HR MIN TEMP: 26; 6HR MAX TEMP: 32; 6HR PCP: 0.02; WHITEFIELD CLOUDY 30 28 92 CALM 29.72R 6HR MIN TEMP: 28; 6HR MAX TEMP: 31; 6HR PCP: 0.03; JAFFREY CLOUDY 36 29 75 SW12G17 29.77R 6HR MIN TEMP: 32; 6HR MAX TEMP: 36; KEENE CLOUDY 36 30 79 VRB3 29.81R LEBANON MOCLDY 33 27 78 CALM 29.75R 6HR MIN TEMP: 29; 6HR MAX TEMP: 34; 6HR PCP: 0.02; MT WASHINGTON SNOW 14 14 100 W78G90 N/A VSB 0 WCI -15 6HR MIN TEMP: 10; 6HR MAX TEMP: 15; 6HR PCP: 0.07; $$ VTZ005-007-008-170700- VERMONT CITY SKY/WX TMP DP RH WIND PRES REMARKS ST JOHNSBURY N/A 30 29 96 MISG 29.72R MONTPELIER CLOUDY 34 31 88 W5 29.76R BURLINGTON CLOUDY 34 31 88 CALM 29.78R $$ MAZ007-012-024-CTZ003-RIZ002-NYZ038-NYZ072-170700- SOUTHERN NEW ENGLAND AND NY CITY SKY/WX TMP DP RH WIND PRES REMARKS WORCESTER FAIR 35 28 75 W16 29.78R NANTUCKET CLOUDY 44 33 65 NW18G26 29.87R PROVIDENCE FAIR 36 30 79 SW7 29.87R HARTFORD MOCLDY 36 31 82 S7 29.88R ALBANY CLOUDY 39 30 70 SW5 29.88S NEW YORK CITY MOCLDY 40 29 64 W13G22 29.98R $$ ANZ081-ANZ082-ANZ150-NHZ014-MEZ023>029-170700- COASTAL MARINE OBSERVATIONS STATION/POSITION TIME TEMP WIND PRES WAVE AIR SEA DIR/SP/G HT/PER (UTC) (F) (DEG/KT/KT) (MB) (FT/S) MOUNT DESERT ROC 0600 35 270/ 24/ 28 1004.8R MATINICUS ROCK 0500 38 280/ 25/ 27 1004.2R ISLE OF SHOALS 0500 38 240/ 19/ 23 1006.7R CASHES LEDGE BUO 0550 42 50 1005.6R 10/11 $$ .............KEY.............. WCI - WIND CHILL TC - TEMPERATURE IN CELSIUS VSB - VISIBILITY IN MILES HX - HEAT INDEX FAIR- INDICATES FEW OR NO CLOUDS BELOW 12,000 FT, WITH NO SIGNIFICANT WEATHER AND/OR OBSTRUCTIONS TO VISIBILITY.

USA.gov is the U.S. government's official web portal to all federal, state and local government web resources and services.